Regional Weather Roundup
Issued by NWS

Home | Current Version | Previous Version | Text Only | Print | Product List | Glossary On
Versions: 1 2 3 4 5 6 7 8 9 10 11 12 13 14 15 16 17 18 19 20 21 22 23 24 25 26 27 28 29 30 31 32 33 34 35 36 37 38 39 40 41 42 43 44 45 46 47 48 49 50
000
ASCA44 KEWX 270120
RWRMX

LATIN AMERICA AND CARIBBEAN REGIONAL WEATHER ROUNDUP
NATIONAL WEATHER SERVICE AUSTIN/SAN ANTONIO TX
700 PM CST MON JAN 26 2015

NOTE: "FAIR" INDICATED FEW OR NO CLOUDS BELOW 12,000 FEET WITH NO
SIGNIFICANT WEATHER AND/OR OBSTRUCTIONS TO VISIBILITY.

BAJA CALIFORNIA

CITY           SKY/WX    TMP DP  RH WIND       PRES   REMARKS
LORETO         PTCLDY    70  63  78 NE6       30.00S
LA PAZ         MOCLDY    70  63  78 N7        30.03
MEXICALI       CLOUDY    57  57 100 NW6       30.08  FOG
S.J. DEL CABO  PTCLDY    73  66  78 SE7       30.01R
TIJUANA        MOCLDY    61  48  63 N12       30.05S

NORTHWESTERN MEXICO

CITY           SKY/WX    TMP DP  RH WIND       PRES   REMARKS
CULIACAN       PTCLDY    84  63  48 NW6       29.98
DURANGO        PTCLDY    63  48  59 SE3       30.29R
GUAYMAS        MOCLDY    79  63  57 CALM      29.97
HERMOSILLO     MOCLDY    72  64  78 CALM      30.06
CD. JUAREZ     CLOUDY    55  34  44 N7        30.21
LOS MOCHIS     MOCLDY    77  59  53 N6        30.02R
OBREGON        CLOUDY    75  59  57 E3        30.01

NORTHEASTERN MEXICO

CITY           SKY/WX    TMP DP  RH WIND       PRES   REMARKS
CHIHUAHUA      MOCLDY    52  28  40 N6        30.30
MATAMOROS      MOCLDY    63  48  59 CALM      30.26
MONTERREY      CLOUDY    64  37  36 E5        30.21S
NUEVO LAREDO   MOCLDY    68  46  45 CALM      30.21
PIEDRAS NEGRAS MOCLDY    72  54  53 SE5       30.21S
REYNOSA        MOCLDY    66  34  30 E6        30.21
SALTILLO       CLOUDY    57  43  58 CALM      30.32S
TORREON        CLOUDY    59  37  44 CALM      30.24F
CD. VICTORIA   MOCLDY    63  43  48 E6        30.23

WESTERN MEXICO

CITY           SKY/WX    TMP DP  RH WIND       PRES   REMARKS
AGUASCALIENTES PTCLDY    66  32  28 S3        30.31
COLIMA         MOCLDY    81  61  50 CALM      30.01R
DEL BAJIO      MOCLDY    66  36  32 CALM      30.34S
GUADALAJARA    MOCLDY    68  45  42 W5        30.22
MANZANILLO     MOCLDY    82  72  69 W6        29.82
MAZATLAN       PTCLDY    75  57  53 W8        29.95R
P. VALLARTA    MOCLDY    81  72  74 S7        29.93R
URUAPAN        MOCLDY    70  55  60 CALM      30.20R
ZACATECAS      MOCLDY    61  37  41 S6        30.34R

CENTRAL MEXICO

CITY           SKY/WX    TMP DP  RH WIND       PRES   REMARKS
CUERNAVACA     PTCLDY    75  45  33 CALM      30.14R
MEXICO CITY    PTCLDY    68  36  30 N13       30.34R
MORELIA        MOCLDY    64  43  45 NW5       30.26
POZA RICA      CLEAR     64  50  59 NE7       30.26F
PUEBLA         MOCLDY    61  39  44 SW7       30.34R
QUERETARO      MOCLDY    63  27  25 NE7       30.35R
S. LUIS POTOSI MOCLDY    61  19  20 E5        30.30R
TAMPICO        MOCLDY    63  52  67 NE5       30.24R
TOLUCA         CLOUDY    59  41  51 SE9       30.40R

SOUTHERN MEXICO

CITY           SKY/WX    TMP DP  RH WIND       PRES   REMARKS
ACAPULCO       CLEAR     81  75  83 CALM      29.87R
B. DE HUATULCO CLEAR     79  70  73 W9        29.93
OAXACA         PTCLDY    68  39  34 NW16      30.24R
P. ESCONDIDO   MOCLDY    81  72  74 S7        30.03F
VERACRUZ       MOCLDY    66  59  77 NE10      30.22R
ZIHUATANEJO    PTCLDY    84  73  70 W3        29.88R HX  91

YUCATAN PENINSULA

CITY           SKY/WX    TMP DP  RH WIND       PRES   REMARKS
CAMPECHE       PTCLDY    72  63  73 N16       30.12S
CANCUN         PTCLDY    66  61  82 NW5       30.09S
CHETUMAL       CLOUDY    77  68  73 NW7       30.10
CD. DEL CARMEN CLOUDY    73  63  68 N16       30.17
COZUMEL        PTCLDY    68  61  77 N18       30.10R
MERIDA         PTCLDY    68  55  64 NW5       30.14R
MINATITLAN     DRIZZLE   68  64  88 N14       30.17
TAPACHULA      CLEAR     81  72  74 CALM      29.90R
TUX. GUTIERREZ PTCLDY    66  55  68 NW15      30.11R
VILLAHERMOSA   CLOUDY    68  64  88 CALM      30.21R

CENTRAL AMERICA

CITY           SKY/WX    TMP DP  RH WIND       PRES   REMARKS
MANAGUA        PTCLDY    82  68  61 E14       29.89R

CARIBBEAN

CITY           SKY/WX    TMP DP  RH WIND       PRES   REMARKS
ARUBA          PTCLDY    79  73  83 NE17      29.86S
CURACAO        PTCLDY    79  73  83 E10         N/A
KINGSTON       PTCLDY    81  72  74 SE9       29.94R
NASSAU         PTCLDY    72  61  68 W23       29.93R
SAN JUAN       PTCLDY    77  72  83 E6        30.02R
SANTO DOMINGO  PTCLDY    77  72  83 S5        29.97S
ST. KITTS      PTCLDY    79  70  73 E9        30.00S
ST. MAARTEN    PTCLDY    79  70  73 E10       30.00S

$$



USA.gov is the U.S. government's official web portal to all federal, state and local government web resources and services.